Weather reports worldwide

Advertisment
Dalwhinnie, United Kingdom (99005): temperature & dewpoint: 17.01.2019 02:00:00 - 23.01.2019 02:00:00 (GMT)Dalwhinnie, United Kingdom (99005): precipitation: 17.01.2019 02:00:00 - 23.01.2019 02:00:00 (GMT)
Date & Time tt [°C] td [°C] rr [mm]
23.01.2019 02:00:00 - - -
23.01.2019 01:00:00 -6,7 -8,0 0,0
23.01.2019 00:00:00 -5,1 -6,6 0,0
22.01.2019 23:00:00 -3,9 -4,9 0,0
22.01.2019 22:00:00 -3,1 -4,6 0,0
22.01.2019 21:00:00 -2,5 -3,7 0,0
22.01.2019 20:00:00 -2,3 -3,7 0,0
22.01.2019 19:00:00 -2,6 -4,2 0,0
22.01.2019 18:00:00 -3,7 -4,7 0,0
22.01.2019 17:00:00 -3,9 -5,3 0,0
22.01.2019 16:00:00 -2,2 -5,0 0,0
22.01.2019 15:00:00 0,0 -3,0 0,0
22.01.2019 14:00:00 -0,6 -2,4 0,0
22.01.2019 13:00:00 -0,2 -2,9 0,0
22.01.2019 12:00:00 -0,8 -2,2 0,0
22.01.2019 11:00:00 -2,0 -3,4 0,0
22.01.2019 10:00:00 -3,1 -4,6 0,0
22.01.2019 09:00:00 -4,3 -5,2 0,0
22.01.2019 08:00:00 -5,1 -6,2 0,0
22.01.2019 07:00:00 -4,7 -5,8 0,0
22.01.2019 06:00:00 -2,9 -3,8 0,0
22.01.2019 05:00:00 -2,8 -4,0 0,0
22.01.2019 04:00:00 -1,9 -3,3 0,0
22.01.2019 03:00:00 -0,1 -1,6 0,0
22.01.2019 02:00:00 0,0 -1,7 0,0
22.01.2019 01:00:00 0,4 -1,1 0,0
22.01.2019 00:00:00 0,1 -1,0 0,0
21.01.2019 23:00:00 0,5 -1,2 0,2
21.01.2019 22:00:00 0,8 -1,1 0,2
21.01.2019 21:00:00 0,3 -0,2 0,2
21.01.2019 20:00:00 1,0 -0,3 0,4
21.01.2019 19:00:00 1,0 -0,2 0,4
21.01.2019 18:00:00 1,1 -0,2 0,4
21.01.2019 17:00:00 1,1 -0,5 0,2
21.01.2019 16:00:00 1,6 -0,5 0,0
21.01.2019 15:00:00 1,6 -0,4 0,0
21.01.2019 14:00:00 2,0 -1,1 0,0
21.01.2019 13:00:00 2,5 -1,7 0,0
21.01.2019 12:00:00 2,3 -2,1 0,0
21.01.2019 11:00:00 1,9 -1,9 0,0
21.01.2019 10:00:00 1,9 -1,7 0,0
21.01.2019 09:00:00 2,0 -0,6 0,0
21.01.2019 08:00:00 1,9 -0,5 0,0
21.01.2019 07:00:00 1,7 -0,8 0,0
21.01.2019 06:00:00 1,3 -1,3 0,0
21.01.2019 05:00:00 1,0 -1,3 0,0
21.01.2019 04:00:00 -0,9 -3,0 0,0
21.01.2019 03:00:00 -0,2 -2,9 0,0
21.01.2019 02:00:00 -1,9 -3,5 0,0
21.01.2019 01:00:00 -0,5 -3,3 0,0
21.01.2019 00:00:00 -0,4 -3,4 0,0
20.01.2019 23:00:00 -0,7 -3,8 0,0
20.01.2019 22:00:00 0,3 -3,0 0,0
20.01.2019 21:00:00 -1,6 -4,1 0,0
20.01.2019 20:00:00 -1,5 -4,4 0,0
20.01.2019 19:00:00 -1,4 -3,0 0,0
20.01.2019 18:00:00 0,0 -2,0 0,0
20.01.2019 17:00:00 1,6 -1,5 0,0
20.01.2019 16:00:00 1,2 -1,8 0,0
20.01.2019 15:00:00 2,0 -1,3 0,0
20.01.2019 14:00:00 3,3 -0,8 0,6
20.01.2019 13:00:00 2,5 0,2 0,0
20.01.2019 12:00:00 1,5 0,9 0,0
20.01.2019 11:00:00 -0,2 -0,6 0,0
20.01.2019 10:00:00 -1,1 -1,6 0,0
20.01.2019 09:00:00 -1,8 -2,4 0,0
20.01.2019 08:00:00 -2,0 -2,5 0,0
20.01.2019 07:00:00 -1,4 -1,7 0,0
20.01.2019 06:00:00 -1,2 -1,6 0,0
20.01.2019 05:00:00 -1,6 -2,5 0,0
20.01.2019 04:00:00 -1,7 -2,5 0,0
20.01.2019 03:00:00 -1,7 -2,2 0,0
20.01.2019 02:00:00 -1,6 -2,1 0,0
20.01.2019 01:00:00 -1,5 -1,9 0,0
20.01.2019 00:00:00 -1,1 -1,7 0,0
19.01.2019 23:00:00 -0,8 -1,5 0,0
19.01.2019 22:00:00 -0,5 -1,4 0,0
19.01.2019 21:00:00 -0,1 -1,2 0,0
19.01.2019 20:00:00 0,1 -1,1 0,0
19.01.2019 19:00:00 0,4 -1,1 0,0
19.01.2019 18:00:00 0,6 -0,9 0,0
19.01.2019 17:00:00 0,6 -0,9 0,0
19.01.2019 16:00:00 1,0 -0,8 0,0
19.01.2019 15:00:00 1,0 -1,4 0,0
19.01.2019 14:00:00 2,0 -1,1 0,0
19.01.2019 13:00:00 2,6 -0,9 0,2
19.01.2019 12:00:00 2,8 -0,8 0,4
19.01.2019 11:00:00 2,2 -0,8 0,0
19.01.2019 10:00:00 0,0 -1,4 0,0
19.01.2019 09:00:00 0,2 -1,2 0,0
19.01.2019 08:00:00 0,1 -1,5 0,0
19.01.2019 07:00:00 0,3 -1,3 0,0
19.01.2019 06:00:00 0,1 -1,5 0,0
19.01.2019 05:00:00 0,6 -1,5 0,0
19.01.2019 04:00:00 0,4 -1,5 0,0
19.01.2019 03:00:00 -0,2 -1,9 0,0
19.01.2019 02:00:00 0,6 -1,7 0,0
19.01.2019 01:00:00 0,6 -1,8 0,0
19.01.2019 00:00:00 0,2 -1,7 0,0
18.01.2019 23:00:00 -0,1 -2,2 0,0
18.01.2019 22:00:00 0,0 -3,1 0,0
18.01.2019 21:00:00 -0,1 -3,8 0,0
18.01.2019 20:00:00 -0,2 -4,2 0,0
18.01.2019 19:00:00 -0,2 -4,8 0,0
18.01.2019 18:00:00 -0,4 -4,7 0,0
18.01.2019 17:00:00 0,1 -5,4 0,0
18.01.2019 16:00:00 -0,9 -5,3 0,0
18.01.2019 15:00:00 -0,6 -5,0 0,0
18.01.2019 14:00:00 -0,5 -4,8 0,0
18.01.2019 13:00:00 -0,9 -4,4 0,0
18.01.2019 12:00:00 -1,0 -4,3 0,0
18.01.2019 11:00:00 -0,8 -4,4 0,0
18.01.2019 10:00:00 -1,5 -4,3 0,0
18.01.2019 09:00:00 -2,5 -5,4 0,0
18.01.2019 08:00:00 -2,2 -5,6 0,0
18.01.2019 07:00:00 -2,4 -6,1 0,0
18.01.2019 06:00:00 -2,0 -5,7 0,0
18.01.2019 05:00:00 -1,7 -5,3 0,0
18.01.2019 04:00:00 -0,9 -5,7 0,0
18.01.2019 03:00:00 -3,9 -5,9 0,0
18.01.2019 02:00:00 -5,0 -6,2 0,0
18.01.2019 01:00:00 -4,0 -5,1 0,0
18.01.2019 00:00:00 -4,7 -5,7 0,0
17.01.2019 23:00:00 -4,6 -5,7 0,0
17.01.2019 22:00:00 -4,2 -5,3 0,0
17.01.2019 21:00:00 -3,8 -5,1 0,0
17.01.2019 20:00:00 -3,8 -5,1 0,0
17.01.2019 19:00:00 -3,5 -5,0 0,0
17.01.2019 18:00:00 -3,0 -4,9 0,0
17.01.2019 17:00:00 -2,6 -4,8 0,0
17.01.2019 16:00:00 -0,8 -3,4 0,0
17.01.2019 15:00:00 0,4 -3,2 0,0
17.01.2019 14:00:00 0,4 -3,1 0,0
17.01.2019 13:00:00 0,7 -3,4 0,0
17.01.2019 12:00:00 -0,1 -4,0 0,0
17.01.2019 11:00:00 -0,7 -4,3 0,0
17.01.2019 10:00:00 -1,0 -4,4 0,0
17.01.2019 09:00:00 -0,9 -4,4 0,0
17.01.2019 08:00:00 -1,0 -4,0 0,0
17.01.2019 07:00:00 -1,4 -3,2 0,0
17.01.2019 06:00:00 -1,2 -3,6 0,0
17.01.2019 05:00:00 -1,0 -4,0 0,0
17.01.2019 04:00:00 -1,5 -4,5 0,0
17.01.2019 03:00:00 -2,3 -5,4 0,0
17.01.2019 02:00:00 -2,3 -4,6 0,0

tt = temperature
td = dewpoint
rr = precipitation

Next stations